Location: Bothwell
(41.7170°N, 112.2589°W)
Time: 13:26:31
(UTC+00:00)

Explorer 11/Cluster Stage 4 - All Passes

Search period start: 13 May 2026 00:00
Search period end: 23 May 2026 00:00
Orbit: 463 x 1174 km, 28.8° (Epoch: 13 May)

Date Brightness Start Highest point End Pass type
(mag) Time Alt. Az. Time Alt. Az. Time Alt. Az.
13 May - 05:27:30 10° S 05:29:23 11° SSE 05:31:11 10° SE night (unlit)
13 May - 07:12:20 10° SW 07:16:19 18° S 07:19:50 10° SE night (unlit)
13 May - 08:59:43 10° SW 09:03:05 17° S 09:06:05 10° SSE night (unlit)
14 May - 05:01:55 10° S 05:04:35 12° SSE 05:07:07 10° SE visible
14 May - 06:47:09 10° SW 06:51:35 20° S 06:55:28 10° SE night (unlit)
14 May - 08:34:37 10° SW 08:38:25 19° S 08:41:45 10° SE night (unlit)
15 May - 04:36:29 10° S 04:39:45 14° SSE 04:42:50 10° SE visible
15 May - 06:21:58 10° SW 06:26:48 21° S 06:31:04 10° SE night (unlit)
15 May - 08:09:29 10° SW 08:13:43 20° S 08:17:24 10° SE night (unlit)
15 May - 09:59:57 10° SSW 10:00:12 10° SSW 10:00:27 10° SSW night (unlit)
16 May - 04:11:09 10° SSW 04:14:54 15° SSE 04:18:25 10° SE visible
16 May - 05:56:46 10° SW 06:01:59 23° S 06:06:36 10° SE visible
16 May - 07:44:21 10° WSW 07:48:59 22° S 07:53:00 10° SE night (unlit)
16 May - 09:34:01 10° SW 09:35:31 11° SSW 09:36:56 10° S night (unlit)
17 May - 03:45:53 10° SSW 03:50:00 16° SSE 03:53:54 10° SE visible
17 May - 05:31:36 10° SW 05:37:08 24° S 05:42:05 10° ESE visible
17 May - 07:19:11 10° WSW 07:24:12 23° S 07:28:33 10° SE night (unlit)
17 May - 09:08:38 10° SW 09:10:49 12° SSW 09:12:51 10° S night (unlit)
18 May - 03:20:41 10° SSW 03:25:05 16° SSE 03:29:17 10° SE visible
18 May - 05:06:26 10° SW 05:12:16 25° S 05:17:30 10° ESE visible
18 May - 06:54:02 10° WSW 06:59:24 24° S 07:04:04 10° SE visible
18 May - 08:43:19 10° SW 08:46:04 13° SSW 08:48:37 10° S night (unlit)
19 May - 02:55:33 10° SSW 03:00:08 17° SSE 03:04:36 10° ESE daylight
19 May - 04:41:17 10° SW 04:47:21 26° S 04:52:52 10° ESE visible
19 May - 06:28:52 10° WSW 06:34:32 25° S 06:39:32 10° SE visible
19 May - 08:18:03 10° SW 08:21:18 14° SSW 08:24:17 10° S night (unlit)
20 May - 02:30:28 10° SSW 02:35:11 17° SSE 02:39:49 10° ESE daylight
20 May - 04:16:11 10° SW 04:22:24 27° S 04:28:11 10° ESE visible
20 May - 06:03:43 10° WSW 06:09:39 26° S 06:14:57 10° SE visible
20 May - 07:52:49 10° WSW 07:56:30 15° SSW 07:59:52 10° S night (unlit)
21 May - 02:05:26 10° SSW 02:10:13 18° SSE 02:14:59 10° ESE daylight
21 May - 03:51:06 10° SW 03:57:26 28° S 04:03:26 10° ESE visible
21 May - 05:38:35 10° WSW 05:44:44 27° S 05:50:19 10° SE visible
21 May - 07:27:35 10° WSW 07:31:39 16° SSW 07:35:23 10° SSE visible
22 May - 01:40:28 10° SSW 01:45:14 18° SSE 01:50:04 10° ESE daylight
22 May - 03:26:04 10° SW 03:32:27 28° S 03:38:37 10° ESE visible
22 May - 05:13:29 10° WSW 05:19:48 28° S 05:25:37 10° SE visible
22 May - 07:02:23 10° WSW 07:06:47 17° SSW 07:10:50 10° SSE visible
